This demonstration page uses our WeatherBlox Daily Observations layout. Learn more.

Left ArrowRight Arrow

Hourly Observations for November 24, 2016

Temp ( °F °C ) Dew Point ( °F °C ) Humidity (%) Winds ( mph kmh ) Pressure ( in mb ) Visibility ( mi km ) Precip ( " mm )
12:59 am 00:59 Clear 43 6.1 38 3.3 82 82 S 3 6 30.29 1026 10 16 0.00 0.00
1:59 am 01:59 Cloudy 45 7.2 38 3.3 77 77 S 6 9 30.29 1026 10 16 0.00 0.00
2:59 am 02:59 Cloudy 47 8.3 37 2.8 69 69 S 6 9 30.29 1026 10 16 0.00 0.00
3:59 am 03:59 Cloudy 48 8.9 37 2.8 66 66 SSE 6 9 30.26 1025 10 16 0.00 0.00
4:59 am 04:59 Cloudy 49 9.4 37 2.8 64 64 S 6 9 30.26 1025 10 16 0.00 0.00
5:59 am 05:59 Cloudy 50 10 36 2.2 59 59 SSE 5 7 30.25 1025 10 16 0.00 0.00
6:59 am 06:59 Cloudy 50 10 37 2.8 61 61 S 6 9 30.27 1025 10 16 0.00 0.00
7:59 am 07:59 Cloudy with Light Rain 48 8.9 43 6.1 83 83 Calm 30.27 1025 8 13 0.01 0.25
8:59 am 08:59 Cloudy with Light Rain 50 10 44 6.7 80 80 S 7 11 30.27 1025 6 10 0.01 0.25
9:59 am 09:59 Cloudy 53 11.7 47 8.3 80 80 S 6 9 30.26 1025 10 16 0.00 0.03
10:11 am 10:11 Cloudy with Rain 53 11.7 48 8.9 83 83 SW 7 11 30.27 1025 2 3 0.03 0.76
10:14 am 10:14 Cloudy with Heavy Rain 53 11.7 48 8.9 83 83 SSW 6 9 30.27 1025 1 2 0.06 1.52
10:22 am 10:22 Cloudy with Rain 52 11.1 49 9.4 89 89 SSW 5 7 30.27 1025 1 1 0.12 3.05
10:26 am 10:26 Cloudy with Rain 52 11.1 49 9.4 89 89 SSW 6 9 30.27 1025 1 2 0.14 3.56
10:38 am 10:38 Cloudy with Light Rain 53 11.7 50 10 89 89 SSW 6 9 30.27 1025 2 3 0.17 4.32
10:50 am 10:50 Cloudy with Light Rain 53 11.7 50 10 89 89 SSW 6 9 30.24 1024 3 5 0.19 4.83
10:59 am 10:59 Cloudy with Light Rain 53 11.7 50 10 89 89 SSW 8 13 30.25 1024 3 4 0.21 5.33
11:24 am 11:24 Cloudy with Light Rain 54 12.2 52 11.1 93 93 S 8 13 30.24 1024 3 5 0.03 0.76
11:59 am 11:59 Cloudy with Mist and Fog 56 13.3 54 12.2 93 93 SSW 8 13 30.22 1023 6 10 0.03 0.76
12:59 pm 12:59 Cloudy with Mist and Fog 58 14.4 56 13.3 93 93 SSW 8 13 30.19 1022 6 10 0.01 0.25
1:08 pm 13:08 Cloudy 58 14.4 56 13.3 93 93 SSW 9 15 30.18 1022 7 11 0.00 0.00
1:59 pm 13:59 Partly Cloudy 60 15.6 56 13.3 86 86 SSW 7 11 30.17 1022 9 14 0.00 0.00
2:59 pm 14:59 Partly Cloudy 61 16.1 57 13.9 87 87 SSW 8 13 30.16 1022 10 16 0.00 0.00
3:59 pm 15:59 Sunny 60 15.6 55 12.8 84 84 SW 7 11 30.17 1022 10 16 0.00 0.00
4:59 pm 16:59 Clear 58 14.4 55 12.8 90 90 SSW 3 6 30.18 1022 7 11 0.00 0.00
5:59 pm 17:59 Clear 56 13.3 54 12.2 93 93 SW 5 7 30.19 1022 7 11 0.00 0.00
6:59 pm 18:59 Mostly Cloudy with Mist and Fog 56 13.3 54 12.2 93 93 SW 6 9 30.21 1023 6 10 0.00 0.00
7:59 pm 19:59 Cloudy 57 13.9 55 12.8 93 93 SSW 5 7 30.21 1023 7 11 0.00 0.00
8:59 pm 20:59 Cloudy with Mist and Fog 57 13.9 54 12.2 90 90 Calm 30.22 1023 5 8 0.00 0.00
9:32 pm 21:32 Cloudy with Mist and Fog 55 12.8 53 11.7 93 93 Calm 30.21 1023 3 4 0.00 0.00
9:35 pm 21:35 Cloudy with Mist and Fog 54 12.2 53 11.7 97 97 Calm 30.21 1023 2 2 0.00 0.00
9:45 pm 21:45 Cloudy with Mist and Fog 55 12.8 53 11.7 93 93 Calm 30.21 1023 1 1 0.00 0.00
9:59 pm 21:59 Cloudy with Fog 54 12.2 53 11.7 97 97 Calm 30.22 1023 0 0 0.00 0.00
10:13 pm 22:13 Cloudy with Fog 53 11.7 52 11.1 96 96 Calm 30.24 1024 0 0 0.00 0.00
10:59 pm 22:59 Partly Cloudy with Fog 51 10.6 50 10 96 96 Calm 30.23 1024 0 0 0.00 0.00
11:59 pm 23:59 Cloudy with Fog 52 11.1 51 10.6 97 97 E 3 6 30.23 1024 0 0 0.00 0.00

Powered by AerisWeather